SL-14 R/B (20466 NORAD) Tracking and Keplerian Element Data

This shows tracking and keplerian element data for the satellite.

Feedback or suggestion? Click here.




ElementValue
Catalog20466
NameSL-14 R/B
Epoch Orbit81186
Epoch Day12.79850901
Epoch Year2024
RAAN285.6666
Inclination82.5035
Eccentricity0.0020804
Argument of Perigee15.579
Mean Anonmoly344.606
Mean Motion14.82193978
Decay Rate8.35E-06
L11 20466U 90010B 24012.79850901 .00000835 00000+0 10147-3 0 9997
L22 20466 82.5035 285.6666 0020804 15.5790 344.6060 14.82193978811862



Live tracking and technical data element details for SL-14 R/B (NORAD 20466). SL-14 R/B can be tracked NOW for your location showing map with azimuth and elevation plus other details from your city location.







IsCatalogInMostPopularTable: catalog: 20466, numindb: 350
Update: records affected: 1



GetName: 20466 SL-14 R/B

Hit Count: updated at: Fri, 19 Apr 2024 12:46:52 GMT